Simultaneous Nadir Overpasses (SNOs) Predictions

Prediction of SNOs between AURA and NPP Satellite Orbit:

Table of predicted SNOs for the next 14.0 days since TLE Epoch: 2/10/2024
Index Date (AURA) Time (AURA) Lat,Lon (AURA) SZA (AURA ) Date (NPP) Time (NPP) Lat,Lon (NPP) SZA (NPP ) Distance(km) Time Diff (sec)
1 02/11/2024 02:51:50 80.21, 40.88 105.67 02/11/2024 02:51:02 80.20, 40.75 105.72 2.46 48
2 02/11/2024 03:41:10 -80.36,-149.99 74.61 02/11/2024 03:41:41 -80.37,-149.92 74.65 1.39 31
3 02/13/2024 17:26:34 80.31,-176.80 104.63 02/13/2024 17:26:22 80.32,-176.73 104.63 1.33 12
4 02/13/2024 18:15:56 -80.41, -8.25 75.54 02/13/2024 18:17:04 -80.40, -8.33 75.58 1.55 68
5 02/16/2024 07:11:58 -80.25, 156.30 76.14 02/16/2024 07:11:04 -80.26, 156.39 76.12 1.81 54
6 02/16/2024 08:01:17 80.37, -34.94 103.66 02/16/2024 08:01:43 80.37, -34.88 103.63 1.13 26
7 02/18/2024 21:46:41 -80.26, -62.30 77.06 02/18/2024 21:46:27 -80.26, -62.46 77.03 2.89 14
8 02/18/2024 22:36:00 80.40, 106.74 102.69 02/18/2024 22:37:06 80.40, 106.58 102.67 3.06 66
9 02/21/2024 11:32:00 80.21, -89.06 102.10 02/21/2024 11:31:07 80.21, -89.14 102.16 1.48 53
10 02/21/2024 12:21:20 -80.38, 80.15 78.19 02/21/2024 12:21:46 -80.38, 80.22 78.22 1.43 26



Historial Predications of SNOs between AURA and NPP
